Probability
39 52 77 74 74 77 84 68 68 81 74 84 77 68 74 74 74 68 65 61 61 61 58 55 61 48 52 42 35 39 42 48 42 39 42 52 42 42 48 45 35 23 55
39 52 74 77 74 71 74 68 77 81 74 77 71 71 74 74 71 68 58 61 58 58 58 58 55 52 48 42 45 48 42 45 42 35 42 39 39 42 48 52 48 35 55
42 45 58 74 74 71 74 71 77 77 77 77 77 71 71 71 68 61 58 61 61 58 58 52 45 42 42 35 39 42 42 32 42 42 48 19 19 45 48 52 58 45 48
32 42 39 84 84 81 77 84 84 77 68 74 74 77 74 74 61 58 58 58 61 58 55 45 48 45 35 39 35 42 35 26 32 39 29 19 16 29 45 35 42 42 39
35 42 68 81 84 77 81 77 87 81 71 71 74 74 74 68 65 61 61 58 65 61 52 48 39 39 42 35 35 32 29 32 35 32 39 32 32 45 42 39 42 42 45
29 39 48 84 74 81 77 71 77 71 74 68 71 68 68 61 68 65 58 65 61 55 48 52 42 45 45 39 35 29 32 32 29 23 32 29 32 42 39 32 39 42 39
26 26 42 68 68 61 68 68 77 74 68 65 74 71 68 74 68 65 61 61 48 45 45 39 35 39 42 35 29 26 26 35 29 23 23 45 52 42 42 42 48 48 48
19 29 42 71 68 68 65 77 71 74 71 55 65 61 68 65 65 58 58 61 48 52 45 42 45 42 42 35 23 29 26 42 23 19 26 32 55 55 45 45 55 55 55
19 29 26 35 55 71 71 74 71 61 52 55 58 61 68 65 61 48 48 58 39 39 39 45 45 39 42 32 39 29 32 42 35 26 19 26 55 65 55 48 55 58 45
23 26 35 35 52 48 55 65 61 58 61 65 61 61 61 65 61 52 55 55 35 42 45 52 48 35 42 42 39 42 42 45 29 16 19 35 58 65 61 48 45 52 52
26 29 32 35 39 35 35 42 55 61 65 65 65 61 68 61 42 52 45 65 45 45 45 48 48 48 39 42 42 52 45 23 29 23 23 45 58 61 55 55 52 52 58
23 26 32 32 39 42 29 55 71 52 68 68 71 65 68 74 65 45 52 71 65 55 55 55 58 55 45 35 39 45 26 23 19 23 26 55 61 61 58 58 58 55 48
19 26 29 45 55 48 58 52 52 65 61 61 61 68 68 68 65 55 55 58 68 55 42 55 45 32 32 35 32 29 29 23 16 16 32 48 61 58 58 55 55 55 58
19 29 35 42 52 58 58 61 61 52 58 58 65 68 61 68 71 61 68 52 55 55 65 52 52 39 45 39 39 35 32 26 16 16 26 52 48 52 48 48 52 55 61
32 35 42 55 52 61 74 71 58 65 55 58 68 74 74 65 68 71 74 81 68 58 58 65 55 52 55 52 35 32 29 32 16 19 16 39 45 45 48 52 52 58 55
32 45 58 52 65 71 68 74 65 58 74 68 71 71 74 68 74 74 77 84 65 71 65 65 61 68 65 61 58 48 48 42 39 23 23 35 48 45 48 55 55 55 55
42 52 61 65 68 74 71 71 68 71 58 65 71 71 71 61 74 68 77 77 71 74 71 68 65 68 65 65 65 61 58 52 52 52 42 39 39 48 52 58 58 61 65
55 65 68 48 74 74 84 81 68 68 71 68 68 68 68 68 65 77 84 77 71 77 65 68 65 58 61 61 55 58 55 61 58 48 55 52 52 42 45 61 58 61 65
71 77 71 74 74 81 77 74 74 74 77 74 68 68 68 65 71 71 77 81 74 71 61 55 61 61 61 58 58 55 55 55 58 58 58 58 65 65 52 52 68 68 68
68 71 77 81 81 84 77 74 74 74 71 74 77 71 74 68 68 71 77 74 68 65 61 61 61 71 68 65 42 42 48 48 52 55 52 58 55 55 55 45 55 61 61
71 77 81 81 90 87 84 77 77 71 71 74 74 58 65 61 61 68 68 68 74 68 61 61 65 58 65 65 58 52 42 45 48 55 52 45 48 52 52 58 48 48 52
65 71 87 87 84 87 87 87 84 84 77 71 77 77 58 61 65 52 68 61 74 77 71 65 61 68 61 61 58 52 45 45 48 35 42 45 48 45 52 52 58 58 52
52 65 68 77 87 87 87 87 81 81 77 74 71 71 61 65 58 68 58 65 71 71 61 68 61 65 61 58 61 55 55 48 52 48 45 42 45 42 42 52 58 55 52
52 58 87 84 84 84 84 81 84 81 74 71 68 68 68 61 55 61 58 65 77 68 65 61 58 61 61 61 61 65 61 52 45 45 45 48 48 48 52 32 42 52 45
48 52 71 84 81 81 81 81 81 77 74 77 71 71 68 61 61 58 61 65 68 61 61 61 65 58 58 55 58 48 45 58 55 45 39 48 48 42 45 39 42 45 45
48 48 65 81 81 81 77 81 81 77 77 74 71 65 68 68 65 58 61 65 61 65 71 65 65 65 58 55 55 55 52 52 48 45 42 48 42 42 39 42 32 42 39
Height
5882 5881 5881 5882 5882 5882 5882 5883 5883 5883 5883 5884 5884 5884 5884 5884 5884 5884 5884 5884 5884 5884 5884 5885 5885 5886 5886 5887 5887 5887 5887 5888 5888 5888 5888 5888 5888 5889 5889 5889 5889 5889 5890
5883 5882 5882 5883 5883 5883 5884 5884 5884 5884 5885 5885 5885 5885 5885 5885 5886 5886 5885 5885 5885 5886 5886 5886 5886 5887 5887 5888 5888 5888 5888 5888 5889 5889 5889 5889 5889 5889 5889 5889 5889 5890 5890
5884 5884 5884 5884 5884 5884 5885 5885 5886 5886 5886 5886 5887 5887 5887 5887 5887 5887 5887 5887 5887 5887 5887 5887 5887 5888 5888 5888 5889 5889 5889 5889 5889 5889 5889 5889 5889 5889 5889 5889 5890 5890 5890
5885 5885 5885 5885 5885 5886 5886 5887 5887 5887 5888 5888 5888 5888 5888 5888 5888 5888 5888 5888 5889 5889 5889 5889 5889 5889 5889 5890 5890 5890 5890 5890 5890 5890 5889 5889 5889 5889 5889 5890 5890 5890 5890
5886 5886 5886 5886 5887 5887 5887 5888 5888 5889 5889 5889 5889 5890 5890 5890 5890 5890 5890 5890 5890 5890 5890 5890 5890 5890 5890 5890 5891 5891 5891 5891 5890 5890 5890 5890 5890 5890 5890 5890 5890 5890 5890
5888 5887 5887 5887 5887 5888 5889 5889 5890 5890 5890 5890 5891 5891 5891 5891 5891 5891 5891 5891 5891 5891 5892 5892 5892 5891 5891 5891 5891 5891 5891 5891 5891 5891 5890 5890 5890 5890 5890 5890 5890 5890 5891
5889 5888 5888 5889 5889 5889 5890 5890 5890 5891 5891 5892 5892 5892 5893 5893 5892 5892 5892 5892 5893 5893 5893 5893 5892 5892 5892 5892 5892 5892 5892 5892 5891 5891 5891 5890 5890 5890 5890 5890 5890 5890 5890
5890 5890 5890 5890 5890 5891 5891 5891 5891 5892 5893 5893 5893 5893 5893 5893 5893 5893 5893 5893 5893 5893 5893 5893 5893 5893 5893 5893 5893 5893 5893 5892 5891 5891 5891 5891 5890 5890 5890 5890 5890 5890 5890
5892 5891 5891 5891 5892 5892 5892 5892 5893 5893 5894 5894 5894 5894 5894 5894 5894 5894 5894 5894 5894 5894 5894 5894 5894 5893 5894 5894 5893 5893 5893 5892 5891 5891 5891 5890 5890 5890 5890 5890 5889 5889 5889
5893 5893 5893 5893 5893 5894 5894 5894 5894 5894 5895 5895 5895 5895 5895 5895 5895 5895 5895 5895 5895 5895 5895 5895 5894 5894 5894 5894 5893 5893 5892 5892 5891 5891 5890 5890 5890 5889 5889 5889 5888 5889 5889
5895 5895 5895 5895 5895 5895 5895 5895 5896 5896 5896 5896 5896 5896 5896 5896 5896 5896 5896 5896 5896 5896 5896 5895 5895 5894 5894 5894 5893 5892 5892 5892 5891 5891 5890 5890 5889 5889 5888 5888 5888 5888 5887
5897 5897 5897 5897 5897 5897 5897 5897 5897 5897 5897 5897 5897 5897 5897 5897 5897 5897 5896 5896 5896 5896 5896 5895 5895 5895 5894 5894 5893 5892 5892 5891 5890 5891 5890 5889 5889 5888 5887 5887 5887 5887 5886
5899 5899 5899 5898 5898 5898 5898 5898 5898 5899 5898 5898 5898 5898 5898 5897 5897 5897 5897 5897 5897 5896 5896 5896 5895 5895 5894 5894 5893 5892 5892 5891 5890 5890 5889 5889 5888 5887 5887 5886 5885 5885 5885
5901 5900 5900 5900 5900 5899 5899 5899 5899 5899 5899 5899 5899 5899 5898 5898 5898 5897 5897 5897 5896 5896 5896 5895 5895 5895 5894 5893 5893 5892 5891 5891 5889 5889 5888 5888 5887 5886 5886 5885 5884 5884 5884
5902 5902 5901 5901 5901 5900 5900 5900 5900 5900 5900 5899 5899 5899 5899 5899 5898 5898 5897 5897 5896 5896 5895 5895 5895 5894 5894 5893 5892 5891 5891 5889 5888 5888 5887 5886 5886 5885 5884 5883 5883 5882 5882
5904 5903 5903 5902 5902 5902 5901 5901 5901 5900 5900 5900 5900 5899 5899 5899 5898 5898 5897 5897 5896 5896 5895 5895 5894 5894 5893 5892 5891 5890 5890 5889 5887 5886 5885 5884 5884 5883 5883 5882 5881 5880 5880
5905 5904 5904 5903 5903 5902 5902 5902 5901 5901 5900 5900 5900 5899 5899 5899 5898 5898 5897 5897 5896 5895 5894 5894 5893 5893 5892 5892 5890 5890 5889 5888 5887 5885 5884 5883 5882 5881 5881 5880 5879 5878 5878
5906 5906 5905 5904 5904 5903 5902 5902 5901 5901 5901 5900 5900 5900 5899 5899 5898 5898 5897 5896 5895 5894 5894 5894 5893 5892 5891 5890 5889 5889 5888 5886 5885 5884 5883 5882 5881 5880 5879 5878 5877 5876 5876
5907 5906 5906 5905 5904 5904 5903 5902 5902 5901 5901 5901 5900 5900 5899 5898 5898 5897 5897 5896 5895 5894 5893 5893 5892 5891 5890 5889 5888 5887 5886 5885 5884 5882 5881 5880 5879 5878 5877 5876 5875 5875 5874
5908 5907 5907 5906 5905 5904 5903 5903 5902 5901 5901 5900 5900 5899 5899 5898 5897 5897 5896 5895 5894 5893 5893 5892 5891 5890 5888 5887 5886 5885 5884 5883 5882 5880 5879 5878 5877 5876 5875 5874 5873 5872 5871
5909 5908 5907 5906 5905 5904 5904 5903 5902 5901 5900 5900 5900 5899 5898 5897 5897 5896 5896 5895 5894 5893 5892 5891 5889 5888 5887 5886 5885 5883 5882 5881 5879 5878 5877 5876 5875 5873 5872 5871 5870 5870 5869
5908 5908 5907 5906 5905 5904 5903 5902 5901 5901 5900 5900 5899 5898 5898 5897 5896 5895 5895 5894 5893 5892 5891 5889 5888 5887 5885 5884 5883 5881 5880 5879 5878 5876 5875 5874 5872 5871 5870 5869 5868 5867 5866
5908 5907 5906 5905 5904 5903 5903 5902 5901 5900 5899 5899 5898 5897 5897 5896 5895 5894 5893 5892 5891 5890 5889 5887 5886 5884 5883 5882 5880 5879 5878 5876 5875 5874 5872 5871 5869 5868 5867 5866 5865 5864 5863
5907 5906 5905 5905 5904 5903 5902 5901 5900 5899 5898 5897 5897 5896 5895 5894 5893 5892 5891 5890 5889 5888 5886 5885 5884 5882 5880 5879 5878 5876 5875 5873 5872 5871 5870 5868 5866 5865 5864 5862 5861 5860 5859
5906 5905 5904 5904 5903 5901 5900 5899 5899 5898 5896 5896 5895 5894 5893 5892 5891 5890 5889 5887 5886 5885 5883 5882 5881 5879 5877 5876 5875 5873 5871 5870 5868 5868 5866 5865 5863 5862 5860 5859 5858 5856 5856
5905 5904 5903 5902 5901 5900 5899 5898 5897 5895 5894 5893 5892 5891 5890 5889 5888 5887 5886 5884 5883 5882 5880 5879 5877 5876 5874 5872 5871 5869 5868 5866 5865 5863 5862 5861 5859 5858 5856 5854 5853 5852 5851
Wind_Speed
5 5 5 5 5 5 5 5 6 6 7 6 6 5 5 5 5 5 5 5 6 6 7 7 7 5 5 6 5 5 5 5 4 4 4 4 4 3 3 2 2 1 0
5 4 5 5 5 5 5 6 5 6 7 6 6 5 5 5 5 5 5 5 6 7 7 6 6 6 6 6 5 5 5 5 5 4 4 3 4 3 3 3 3 2 1
4 4 5 5 5 4 6 6 5 6 6 6 6 6 5 6 6 5 6 6 7 7 7 6 6 6 6 6 5 5 5 5 5 4 4 4 4 3 3 3 3 2 1
4 3 4 5 5 5 6 6 6 6 6 5 5 5 5 6 6 5 6 6 6 6 7 7 6 6 5 5 5 5 5 5 5 4 4 5 4 4 3 3 2 2 2
4 4 5 5 5 5 5 5 6 6 5 5 5 5 5 5 5 5 5 5 6 6 6 5 5 5 5 5 5 5 5 5 5 5 5 4 4 3 3 3 2 2 2
4 4 4 4 5 5 5 5 5 5 4 4 4 5 5 5 5 4 4 4 5 5 5 5 5 5 5 5 5 5 5 5 5 5 4 4 3 3 4 3 2 1 2
4 4 4 5 5 5 5 4 4 4 4 3 4 4 5 4 4 4 3 4 4 4 4 4 4 6 6 6 5 5 5 5 5 4 4 3 3 4 4 3 2 2 2
4 4 5 5 5 4 4 4 4 4 4 3 3 4 4 4 4 4 4 4 5 4 4 3 4 4 5 5 5 5 5 5 4 5 4 3 4 4 4 4 3 2 3
4 5 5 5 4 4 3 3 4 4 3 3 3 3 3 4 4 4 4 4 4 4 4 3 3 3 4 5 5 5 5 5 4 5 4 4 4 4 4 4 3 3 4
5 5 5 4 4 3 3 3 3 3 3 3 3 3 3 3 3 3 3 3 3 3 4 4 3 4 4 5 5 6 6 5 4 5 5 5 5 4 3 4 4 3 4
5 5 5 5 4 3 2 3 2 2 2 2 3 3 3 3 3 3 3 3 3 3 4 4 4 4 4 5 5 6 6 6 5 5 5 5 5 5 4 5 5 5 5
5 5 5 4 4 4 3 3 3 2 2 2 2 3 3 3 3 3 3 4 4 4 3 3 4 4 5 5 5 6 6 5 5 6 6 6 6 6 6 6 6 5 6
5 5 5 4 4 4 3 3 2 2 2 2 3 3 3 3 3 2 3 4 4 4 4 4 4 4 5 5 6 6 5 6 6 6 7 6 6 6 6 6 6 6 7
6 5 5 5 5 4 3 3 3 3 3 2 3 3 3 3 3 3 3 4 4 4 4 4 4 4 5 6 6 6 6 7 7 7 7 7 7 7 7 6 7 7 7
6 5 5 6 5 4 4 4 3 3 3 3 3 4 3 3 4 4 4 4 4 5 5 5 4 4 5 5 6 7 7 8 7 7 8 7 7 7 7 7 8 8 8
6 5 5 5 5 4 4 4 4 3 3 4 4 4 4 4 5 5 5 5 5 5 5 5 5 5 6 6 7 7 8 8 8 8 8 8 8 7 7 8 8 7 8
7 6 5 5 5 6 5 4 3 3 4 3 3 4 4 5 5 6 6 5 6 5 5 5 5 6 7 7 7 7 7 8 8 9 9 8 8 7 7 8 8 8 7
6 6 6 6 6 6 6 5 4 4 4 4 4 4 4 5 5 6 6 6 6 6 5 5 6 7 7 7 7 8 8 9 9 9 9 9 9 8 8 9 8 8 8
6 6 6 6 6 7 6 5 5 5 5 5 5 5 5 5 6 6 7 6 6 6 6 6 7 8 8 8 9 9 10 9 9 9 9 10 10 10 10 10 9 9 9
7 6 6 6 6 7 6 6 6 5 5 5 6 6 6 6 7 7 7 7 7 7 7 8 8 9 9 10 10 11 11 11 11 10 10 11 11 11 10 10 10 10 10
7 7 7 7 7 7 8 8 7 6 6 6 7 7 8 8 8 8 8 8 8 9 9 10 10 10 10 10 11 12 12 12 12 12 12 12 11 11 10 10 10 10 10
8 8 8 8 8 8 9 9 9 8 7 7 8 8 8 8 8 9 9 9 10 10 11 11 11 12 12 12 12 13 13 13 13 13 12 12 12 11 11 11 11 11 10
9 8 8 8 8 9 10 10 10 10 9 8 9 9 9 9 10 10 10 11 12 11 12 12 13 13 14 14 14 14 14 14 14 14 13 13 13 12 12 12 12 13 13
10 9 9 9 10 10 11 11 12 12 11 10 10 10 10 11 11 12 12 12 13 13 13 14 14 15 15 15 16 16 16 16 16 15 15 14 13 13 13 13 13 13 13
10 10 10 11 11 11 12 12 13 13 12 12 12 12 12 12 12 13 13 14 14 15 15 16 16 16 17 17 18 18 18 18 17 17 16 16 15 15 15 15 14 14 15
11 11 11 12 12 12 12 13 14 14 14 14 14 14 14 14 14 14 14 15 15 16 17 17 17 18 18 18 19 19 20 19 19 19 18 18 18 18 17 17 16 16 17
Wind_Direction
84 102 113 111 111 117 120 114 110 116 118 119 116 118 114 109 103 99 98 97 98 99 101 101 101 96 90 90 88 80 73 74 81 70 65 65 60 59 62 72 61 98 203
82 97 111 112 111 117 121 116 114 113 114 108 106 111 111 109 104 96 95 96 99 95 96 98 97 88 88 87 78 69 66 66 62 55 56 52 54 61 61 56 50 85 70
77 94 101 108 111 116 120 121 119 117 113 108 101 104 107 102 94 91 92 91 90 85 88 89 92 85 88 84 78 69 66 59 46 44 43 40 43 52 57 57 55 67 52
70 89 99 100 108 113 117 119 118 116 113 108 97 99 112 103 98 95 90 95 89 87 85 84 82 81 84 80 73 71 59 54 50 47 42 37 37 44 47 51 52 35 27
70 86 100 96 104 113 113 112 111 109 110 102 96 92 102 106 97 90 88 86 88 87 81 77 77 78 81 72 67 62 54 45 41 44 40 32 32 38 40 41 36 11 16
74 82 93 90 104 108 107 110 112 106 106 101 93 86 88 98 87 87 87 88 87 84 78 68 67 65 66 61 52 51 41 36 34 32 26 26 28 27 22 25 23 2 349
78 89 99 86 91 94 93 89 103 105 94 92 86 89 82 82 73 83 88 90 88 83 71 61 62 58 64 54 47 39 31 24 23 16 11 16 19 14 11 7 2 352 333
70 73 88 84 86 85 82 85 98 102 88 84 84 89 73 68 80 83 80 84 85 75 62 54 51 52 48 40 32 28 17 9 9 2 3 8 1 352 348 345 339 334 317
70 72 83 91 86 79 72 90 97 96 88 83 88 78 56 62 68 72 75 71 64 60 56 50 45 41 29 27 22 14 5 359 357 6 8 10 1 347 338 339 325 319 315
68 74 83 83 75 75 69 81 91 91 92 83 73 62 54 53 50 57 62 53 55 53 49 47 44 29 22 17 9 4 360 1 9 10 4 5 2 352 339 327 317 312 311
57 63 72 66 59 61 59 70 82 78 83 76 59 56 52 43 44 49 47 41 43 43 43 35 30 16 9 2 357 356 358 356 358 360 358 355 353 345 336 326 315 309 308
54 66 66 56 49 53 57 56 74 67 65 67 58 57 46 40 42 44 36 27 24 18 17 16 11 6 0 357 349 350 351 356 355 351 348 344 344 340 332 321 309 304 304
54 57 51 52 46 45 46 46 49 40 31 47 40 29 34 36 32 34 26 17 11 7 3 354 351 349 352 354 350 349 348 347 341 342 339 337 333 331 329 324 310 306 306
51 48 46 47 38 33 32 25 23 18 12 30 36 19 15 20 27 26 7 360 354 352 350 343 341 344 343 343 343 342 336 330 326 330 331 331 328 325 322 318 311 307 307
40 41 42 40 32 30 31 21 12 1 5 22 21 3 359 1 3 1 355 353 346 343 338 334 334 342 344 337 337 338 332 326 320 321 323 325 320 318 316 315 312 304 302
32 34 32 28 20 20 21 19 11 6 16 26 18 360 356 356 356 353 345 345 344 342 343 340 336 335 339 338 337 340 343 337 331 324 323 324 317 313 314 313 314 313 305
28 28 26 19 11 8 7 6 5 353 357 4 6 357 354 356 357 357 349 344 344 346 341 333 336 342 337 329 331 337 340 336 330 329 330 326 318 312 313 311 310 310 309
17 16 12 7 2 0 358 355 358 349 352 352 349 344 347 349 354 352 348 346 343 341 335 330 329 327 327 329 330 332 332 331 329 326 325 326 323 316 311 308 306 307 309
7 5 1 358 358 360 0 357 349 344 344 342 344 339 341 345 345 344 344 344 343 342 337 328 321 319 321 323 324 325 326 328 324 321 321 320 318 316 310 303 303 305 304
360 357 351 348 348 347 346 346 339 335 332 336 342 341 339 340 339 339 339 339 340 336 331 325 318 317 320 324 323 323 326 324 321 318 318 318 316 313 310 304 299 301 301
350 349 345 344 341 341 340 340 337 331 328 331 333 334 332 332 330 333 333 332 330 327 324 320 318 319 322 325 323 321 320 318 319 315 315 316 313 310 308 306 303 299 297
346 346 342 339 338 333 333 338 338 329 324 326 327 326 328 327 323 323 325 328 325 321 318 317 315 315 318 320 319 320 320 318 316 317 314 315 313 311 309 309 307 301 298
337 335 337 334 332 330 330 336 337 330 319 318 319 319 320 320 314 313 316 318 320 315 314 314 312 312 314 315 316 316 318 316 313 314 313 313 311 308 307 306 304 301 296
328 328 329 327 327 325 323 325 328 329 324 317 314 312 309 310 311 310 307 312 313 310 309 310 311 311 312 312 312 313 313 314 313 311 309 310 308 305 303 300 300 301 296
324 323 320 321 322 320 319 318 319 320 317 314 312 310 308 306 307 307 305 305 307 307 306 307 308 308 309 308 309 310 309 311 311 310 310 309 306 302 301 300 298 299 297
319 320 320 319 318 316 315 314 313 312 311 308 306 305 306 306 305 307 306 303 304 304 304 305 307 307 306 307 308 307 306 306 307 307 307 308 306 303 301 297 296 295 295